User: anonymous   Login
Location: ??????
(42.0089°N, 44.3281°E)
Time: 17:43:58
(UTC+00:00)
Language:

YAOGAN 1 - Orbit

View from above orbital plane
View from above orbital plane
View from above satellite
View from above satellite

Ground track
Ground track

The orbit data is extracted from the following two-line orbital elements,

1 29092U 06015A   22021.08258355  .00000233  00000-0  35016-4 0  9994
2 29092  97.8892  51.0006 0001442  90.7106 269.4273 14.83256466851195
Epoch (UTC): 21 January 2022 01:58:55
Eccentricity: 0.0001442
inclination: 97.8892°
perigee height: 618 km
apogee height: 620 km
right ascension of ascending node: 51.0006°
argument of perigee: 90.7106°
revolutions per day: 14.83256466
mean anomaly at epoch: 269.4273°
orbit number at epoch: 85119

The dashed part of the orbit path shows where the satellite is in the earth's shadow,  

DLR